{"data":{"norad_id":68396,"intl_designator":"2026-063S","name":"STARLINK-37190","alt_names":[],"object_type":"PAYLOAD","status":"ACTIVE","operator":null,"country":"US","launch_date":"2026-03-26","launch_site_code":"AFWTR","launch_vehicle":null,"mission":null,"orbit_class":"UNKNOWN","rcs_meters":null,"size_class":null,"mass_kg":null,"dimensions":null,"purposes":["comms"],"wikipedia_slug":null,"has_3d_model":false,"image_url":null,"decayed_at":null,"tle_current":{"epoch":"2026-05-25T03:13:44.129856Z","epoch_age_seconds":62868,"freshness":"FRESH","line1":"1 68396U 26063S   26145.13453854  .00024975  00000+0  77316-3 0  9993","line2":"2 68396  97.2870 287.7452 0001291  83.8528 276.2862 15.33453307  9612","mean_motion":15.33453307,"eccentricity":0.0001291,"inclination_deg":97.287,"raan_deg":287.7452,"arg_perigee_deg":83.8528,"mean_anomaly_deg":276.2862,"bstar":0.00077316,"rev_number":961,"period_min":93.905695949567,"perigee_km":464.63494288245,"apogee_km":466.40197472191,"semimajor_km":6843.6554588022,"source":"CELESTRAK","updated_at":"2026-05-25T13:38:21.931807Z"}}}